Location: Newark
(10.3333°N, 37.7167°E)
Time: 23:13:16
(UTC+00:00)

LightSail 2 - Pass Details

Date: 28 January 2020
Orbit: 700 x 722 km, 24.0° (Epoch: 20 February)

Event Time Altitude Azimuth Distance (km) Brightness Sun altitude
Rises 17:56:51 0° 290° (WNW) 3,080 9.1 -35.1°
Reaches altitude 10° 17:59:17 10° 289° (WNW) 2,166 8.2 -35.6°
Enters shadow 18:00:59 21° 286° (WNW) 1,544 7.3 -36.1°
